CXA102 ZBAD-ZYCC

Flight info

Callsign CXA102
Flight time N/A
Altitude 39100
Route DOTRA6K DOTRA B334 TGO G341 BUTET BUTET9A
Aircraft B77W/H-SDE1E2E3FGHIJ2J3J4J5M1RWXY/LB1D1

Departure

Time 2026-04-28 05:35
Airport Beijing Daxing International Airport (ZBAD)

Arrival

Time N/A
Airport Changchun Longjia International Airport (ZYCC)
Time Latitude Longitude Altitude Speed Heading
2026-04-28 05:06 39.50752 116.40353 113 ft 0 kts 98°
2026-04-28 05:25 39.50752 116.40348 110 ft 3 kts 98°
2026-04-28 05:26 39.50758 116.40314 109 ft 4 kts 106°
2026-04-28 05:26 39.50766 116.40281 109 ft 4 kts 115°
2026-04-28 05:26 39.50779 116.40252 109 ft 4 kts 127°
2026-04-28 05:26 39.50796 116.40228 110 ft 4 kts 147°
2026-04-28 05:27 39.50816 116.40215 110 ft 2 kts 172°
2026-04-28 05:27 39.50818 116.40215 110 ft 0 kts 173°
2026-04-28 05:29 39.50806 116.40217 111 ft 5 kts 173°
2026-04-28 05:29 39.50773 116.40222 109 ft 7 kts 172°
2026-04-28 05:29 39.50712 116.40244 113 ft 1 kts 160°
2026-04-28 05:30 39.50652 116.40217 112 ft 16 kts 239°
2026-04-28 05:30 39.50638 116.40166 111 ft 5 kts 245°
2026-04-28 05:30 39.50567 116.40149 112 ft 15 kts 175°
2026-04-28 05:30 39.50464 116.40164 112 ft 15 kts 172°
2026-04-28 05:31 39.50287 116.40193 111 ft 32 kts 173°
2026-04-28 05:31 39.50131 116.40201 112 ft 9 kts 213°
2026-04-28 05:31 39.50057 116.40123 112 ft 23 kts 189°
2026-04-28 05:31 39.49889 116.40140 110 ft 24 kts 172°
2026-04-28 05:32 39.49697 116.40172 111 ft 37 kts 173°
2026-04-28 05:32 39.49387 116.40219 112 ft 51 kts 173°
2026-04-28 05:32 39.49042 116.40269 112 ft 49 kts 174°
2026-04-28 05:32 39.48709 116.40321 110 ft 47 kts 170°
2026-04-28 05:33 39.48440 116.40353 111 ft 12 kts 208°
2026-04-28 05:33 39.48415 116.40288 109 ft 9 kts 255°
2026-04-28 05:33 39.48429 116.40180 110 ft 17 kts 306°
2026-04-28 05:33 39.48535 116.40128 112 ft 12 kts 353°
2026-04-28 05:34 39.48538 116.40127 112 ft 0 kts 353°
2026-04-28 05:34 39.48640 116.40111 114 ft 45 kts 353°
2026-04-28 05:34 39.49237 116.40016 111 ft 126 kts 353°
2026-04-28 05:34 39.50315 116.39870 248 ft 172 kts 353°
2026-04-28 05:35 39.51511 116.39643 1013 ft 178 kts 348°
2026-04-28 05:35 39.52738 116.39317 1851 ft 181 kts 351°
2026-04-28 05:35 39.53995 116.39204 2670 ft 179 kts
2026-04-28 05:35 39.55212 116.39242 3550 ft 172 kts 359°
2026-04-28 05:36 39.56454 116.39073 3973 ft 192 kts 351°
2026-04-28 05:36 39.57854 116.38751 4265 ft 219 kts 350°
2026-04-28 05:36 39.59463 116.38408 4563 ft 243 kts 351°
2026-04-28 05:36 39.61160 116.38095 4597 ft 248 kts 352°
2026-04-28 05:37 39.62870 116.37807 4603 ft 250 kts 353°
2026-04-28 05:37 39.64588 116.37530 4605 ft 247 kts 354°
2026-04-28 05:37 39.66138 116.37677 4642 ft 251 kts 21°
2026-04-28 05:37 39.67611 116.38902 4861 ft 256 kts 46°
2026-04-28 05:38 39.68503 116.40828 4866 ft 261 kts 69°
2026-04-28 05:38 39.68775 116.43167 4762 ft 265 kts 81°
2026-04-28 05:38 39.68986 116.45566 4702 ft 269 kts 79°
2026-04-28 05:38 39.69215 116.47923 4654 ft 265 kts 79°
2026-04-28 05:39 39.69294 116.50293 4604 ft 266 kts 96°
2026-04-28 05:39 39.68524 116.52527 4623 ft 279 kts 128°
2026-04-28 05:39 39.66888 116.53974 4784 ft 303 kts 162°
2026-04-28 05:39 39.64768 116.54407 5388 ft 315 kts 175°
2026-04-28 05:40 39.62517 116.54724 5962 ft 334 kts 173°
2026-04-28 05:40 39.60185 116.55085 6498 ft 340 kts 173°
2026-04-28 05:40 39.57874 116.55701 6953 ft 341 kts 156°
2026-04-28 05:40 39.55968 116.57474 7451 ft 339 kts 128°
2026-04-28 05:41 39.55080 116.59167 7813 ft 337 kts 114°
2026-04-28 05:41 39.54372 116.62040 8322 ft 334 kts 93°
2026-04-28 05:41 39.54482 116.64801 8792 ft 329 kts 72°
2026-04-28 05:41 39.54512 116.64976 8788 ft 290 kts 72°
2026-04-28 05:42 39.54265 116.67447 8966 ft 296 kts 161°
2026-04-28 05:42 39.53224 116.66305 6279 ft 290 kts 313°
2026-04-28 05:42 39.55350 116.65699 3993 ft 356 kts 13°
2026-04-28 05:42 39.57966 116.68259 2892 ft 349 kts 55°
2026-04-28 05:43 39.58797 116.69948 3264 ft 321 kts 55°
2026-04-28 05:43 39.59947 116.72290 3984 ft 305 kts 56°
2026-04-28 05:43 39.61107 116.74627 3981 ft 311 kts 54°
2026-04-28 05:43 39.62256 116.76935 4410 ft 299 kts 56°
2026-04-28 05:44 39.63350 116.79152 5889 ft 289 kts 54°
2026-04-28 05:44 39.64517 116.81431 5764 ft 310 kts 49°
2026-04-28 05:44 39.66055 116.83349 6345 ft 304 kts 37°
2026-04-28 05:44 39.67681 116.85022 7721 ft 292 kts 36°
2026-04-28 05:45 39.69257 116.86615 9090 ft 282 kts 36°
2026-04-28 05:45 39.70794 116.88066 10110 ft 277 kts 22°
2026-04-28 05:45 39.72715 116.88217 10366 ft 292 kts 342°
2026-04-28 05:45 39.74556 116.86896 10675 ft 307 kts 327°
2026-04-28 05:46 39.76424 116.85682 11920 ft 286 kts 343°
2026-04-28 05:46 39.78364 116.85311 13142 ft 287 kts
2026-04-28 05:46 39.80429 116.85729 13516 ft 316 kts 10°
2026-04-28 05:46 39.82664 116.86476 13774 ft 348 kts 13°
2026-04-28 05:47 39.85067 116.87467 14354 ft 367 kts 18°
2026-04-28 05:47 39.87425 116.88778 15209 ft 377 kts 23°
2026-04-28 05:47 39.89723 116.90415 16163 ft 385 kts 28°
2026-04-28 05:47 39.91983 116.92334 17166 ft 392 kts 31°
2026-04-28 05:48 39.94200 116.94449 18128 ft 399 kts 34°
2026-04-28 05:48 39.96395 116.96701 18984 ft 406 kts 35°
2026-04-28 05:48 39.98604 116.99063 19727 ft 414 kts 36°
2026-04-28 05:48 40.00832 117.01500 20445 ft 423 kts 36°
2026-04-28 05:49 40.03089 117.03998 21203 ft 425 kts 41°
2026-04-28 05:49 40.04968 117.07008 21645 ft 428 kts 47°
2026-04-28 05:49 40.07716 117.09135 22700 ft 443 kts 35°
2026-04-28 05:49 40.10080 117.11753 23407 ft 447 kts 37°
2026-04-28 05:50 40.12168 117.14846 23841 ft 464 kts 51°
2026-04-28 05:50 40.13895 117.18469 24338 ft 475 kts 56°
2026-04-28 05:50 40.15456 117.22215 24885 ft 478 kts 57°
2026-04-28 05:50 40.17538 117.25386 25033 ft 456 kts 19°
2026-04-28 05:51 40.20494 117.25554 25172 ft 425 kts 338°
2026-04-28 05:51 40.23353 117.25308 26163 ft 415 kts 11°
2026-04-28 05:51 40.25997 117.26844 27233 ft 423 kts 22°
2026-04-28 05:51 40.28482 117.29128 27419 ft 453 kts 34°
2026-04-28 05:52 40.30768 117.32142 27540 ft 477 kts 42°
2026-04-28 05:52 40.32993 117.35482 27695 ft 494 kts 43°
2026-04-28 05:52 40.35310 117.38885 27905 ft 505 kts 41°
2026-04-28 05:52 40.37749 117.42208 28192 ft 512 kts 39°
2026-04-28 05:53 40.40341 117.45465 28661 ft 514 kts 36°
2026-04-28 05:53 40.42953 117.48687 29048 ft 520 kts 39°
2026-04-28 05:53 40.45419 117.52225 29356 ft 530 kts 43°
2026-04-28 05:53 40.47881 117.55853 29757 ft 533 kts 41°
2026-04-28 05:54 40.50436 117.59381 30176 ft 534 kts 38°
2026-04-28 05:54 40.53114 117.62767 30557 ft 534 kts 36°
2026-04-28 05:54 40.55855 117.66040 30979 ft 533 kts 37°
2026-04-28 05:54 40.58427 117.69611 31357 ft 541 kts 44°
2026-04-28 05:55 40.60755 117.73509 31827 ft 545 kts 50°
2026-04-28 05:55 40.62797 117.77738 32307 ft 547 kts 54°
2026-04-28 05:55 40.64772 117.82020 32760 ft 548 kts 53°
2026-04-28 05:55 40.66775 117.86307 33179 ft 549 kts 53°
2026-04-28 05:56 40.68785 117.90569 33602 ft 549 kts 53°
2026-04-28 05:56 40.70809 117.94840 34022 ft 549 kts 53°
2026-04-28 05:56 40.72839 117.99112 34392 ft 550 kts 53°
2026-04-28 05:56 40.74861 118.03374 34774 ft 548 kts 53°
2026-04-28 05:57 40.76877 118.07630 35233 ft 546 kts 53°
2026-04-28 05:57 40.78878 118.11866 35696 ft 543 kts 53°
2026-04-28 05:57 40.80871 118.16091 36132 ft 541 kts 53°
2026-04-28 05:57 40.82861 118.20312 36513 ft 541 kts 53°
2026-04-28 05:58 40.84849 118.24541 36949 ft 539 kts 53°
2026-04-28 05:58 40.86812 118.28724 37415 ft 536 kts 53°
2026-04-28 05:58 40.88742 118.32843 37815 ft 534 kts 53°
2026-04-28 05:58 40.90697 118.37016 38168 ft 533 kts 53°
2026-04-28 05:59 40.92644 118.41178 38496 ft 533 kts 53°
2026-04-28 05:59 40.94595 118.45353 38823 ft 532 kts 53°
2026-04-28 05:59 40.96535 118.49509 39121 ft 531 kts 53°
2026-04-28 05:59 40.98471 118.53668 39223 ft 530 kts 54°
2026-04-28 06:00 41.02321 118.61955 39265 ft 526 kts 54°
2026-04-28 06:00 41.06134 118.70183 39261 ft 522 kts 54°
2026-04-28 06:01 41.09925 118.78381 39269 ft 521 kts 54°
2026-04-28 06:01 41.13714 118.86592 39267 ft 521 kts 54°
2026-04-28 06:02 41.17487 118.94802 39274 ft 521 kts 54°
2026-04-28 06:02 41.21260 119.03022 39270 ft 522 kts 54°
2026-04-28 06:03 41.25027 119.11262 39261 ft 521 kts 54°
2026-04-28 06:03 41.28782 119.19496 39263 ft 520 kts 54°
2026-04-28 06:04 41.32527 119.27728 39256 ft 520 kts 54°
2026-04-28 06:04 41.36234 119.35901 39252 ft 520 kts 54°
2026-04-28 06:05 41.39197 119.42449 39246 ft 520 kts 54°